Tracking 28790 objects as of 19-Apr-2024
HD Live streaming from Space Station
objects crossing your sky now

FENGYUN 1C DEB

Track FENGYUN 1C DEB now!
10-day predictions


NORAD ID: 31482
Int'l Code: 1999-025BVW
Perigee: 727.8 km
Apogee: 862.5 km
Inclination: 98.4 °
Period: 100.6 minutes
Semi major axis: 7166 km
RCS: 0.0141 m2 (small)
Launch date: May 10, 1999
Source: People's Republic of China (PRC)
Launch site: Taiyaun Space Center, China (TSC)

Note: This is SATELLITE DEBRIS
Your satellite tracking list
Your tracking list is empty




NASA's NSSDC Master Catalog

Two Line Element Set (TLE):
1 31482U 99025BVW 24109.29010713  .00004548  00000-0  16581-2 0  9996
2 31482  98.3950 125.4692 0094046 276.9957 146.0297 14.31112621884833
Source of the keplerian elements: AFSPC